Regional Weather Roundup
Issued by NWS Spokane, WA

Home | Current Version | Previous Version | Text Only | Print | Product List | Glossary On
Versions: 1 2 3 4 5 6 7 8 9 10 11 12 13 14 15 16 17 18 19 20 21 22 23 24 25 26 27 28 29 30 31 32 33 34 35 36 37 38 39 40 41 42 43 44 45 46 47 48 49 50
000
NZUS01 KOTX 201210
RWROTX
EASTERN WASHINGTON/NORTHERN IDAHO ROUNDUP
NATIONAL WEATHER SERVICE, SPOKANE WA
500 AM PDT SAT SEP 20 2014

Note: "fair" indicated few or no clouds below 12,000 feet with no
significant weather and/or obstructions to visibility.

...NORTHEAST WASHINGTON AND NORTHERN IDAHO PANHANDLE...

CITY           SKY/WX    TMP DP  RH WIND       PRES   REMARKS
SPOKANE INTL   PTCLDY    57  47  69 SE8       30.14R
SPOKANE DOWNTO CLEAR     52  47  83 CALM      30.15R
COEUR D ALENE  CLEAR     48  43  81 NE8       30.15R
DEER PARK      CLEAR     48  44  86 CALM      30.15R
SANDPOINT      PTCLDY    45  45 100 CALM      30.17R

...SOUTHEAST WASHINGTON AND SOUTHERN IDAHO PANHANDLE...

CITY           SKY/WX    TMP DP  RH WIND       PRES   REMARKS
WALLA WALLA    CLEAR     61  46  57 SE6       30.08R
PULLMAN/MOSCOW CLEAR     55  44  66 NE5       30.16R
LEWISTON       CLEAR     56  47  71 E5        30.12R
LOWELL           N/A     51  48  89 NW5       30.20R

...COLUMBIA BASIN...

CITY           SKY/WX    TMP DP  RH WIND       PRES   REMARKS
EPHRATA        CLEAR     58  49  72 NE5       30.10R
MOSES LAKE     CLEAR     53  45  74 N8        30.10R
TRI CITIES     CLEAR     52  50  93 NW7       30.07R
HERMISTON      CLEAR     51  45  79 E3        30.06R
PENDLETON      CLEAR     58  44  60 E6        30.07S

...EAST SLOPES CASCADES...

CITY           SKY/WX    TMP DP  RH WIND       PRES   REMARKS
THE DALLES     CLEAR     58  53  84 S3        30.05R
YAKIMA         CLEAR     55  49  80 W8        30.10R
ELLENSBURG     CLEAR     51  47  86 E5        30.12R
WENATCHEE      CLEAR     61  49  64 W10       30.12R
OMAK           CLEAR     57  46  66 N10       30.14R

...SOUTHERN BRITISH COLUMBIA...

CITY           SKY/WX    TMP DP  RH WIND       PRES   REMARKS
CRANBROOK      PTCLDY    52  43  71 W2        30.19R

...WESTERN MONTANA...

CITY           SKY/WX    TMP DP  RH WIND       PRES   REMARKS
MISSOULA       PTCLDY    46  42  86 CALM      30.23R

...NEIGHBORING CITIES...

CITY           SKY/WX    TMP DP  RH WIND       PRES   REMARKS
SEATTLE        CLEAR     59  54  83 N10       30.10F
CALGARY        PTCLDY    48  37  66 SW5       30.16R



USA.gov is the U.S. government's official web portal to all federal, state and local government web resources and services.